Location: Fort Worth, Tx
(32.7431°N, 97.3695°W)
Time: 09:40:28
(UTC-05:00)

Hubble Space Telescope - Visible Passes

Search period start: 28 November 2023 00:00
Search period end: 08 December 2023 00:00
Orbit: 519 x 523 km, 28.5° (Epoch: 28 November)

Date Brightness Start Highest point End Pass type
(mag) Time Alt. Az. Time Alt. Az. Time Alt. Az.
28 Nov 1.8 20:24:43 10° WSW 20:27:56 38° SSW 20:27:56 38° SSW visible
29 Nov 1.6 20:08:24 10° WSW 20:12:10 39° S 20:12:38 37° S visible
30 Nov 1.8 19:52:04 10° WSW 19:55:48 36° S 19:57:24 25° SE visible
01 Dec 2.1 19:35:45 10° WSW 19:39:24 34° SSW 19:42:15 15° SE visible
02 Dec 2.3 19:19:25 10° WSW 19:22:59 31° SSW 19:26:35 10° SE visible
02 Dec 3.8 21:01:39 10° SW 21:02:11 11° SW 21:02:11 11° SW visible
03 Dec 2.5 19:03:06 10° WSW 19:06:34 28° SSW 19:10:02 10° SE visible
03 Dec 3.6 20:46:31 10° SSW 20:46:48 10° SSW 20:47:05 10° SSW visible
04 Dec 2.8 18:46:47 10° WSW 18:50:07 25° SSW 18:53:27 10° SE visible
